TimeEDT,TemperatureF,Dew PointF,Humidity,Sea Level PressureIn,VisibilityMPH,Wind Direction,Wind SpeedMPH,Gust SpeedMPH,PrecipitationIn,Events,Conditions,WindDirDegrees,DateUTC
12:07 AM,62.6,55.4,77,29.72,10.0,West,20.7,39.1,0.00,Rain,Light Rain,270,2012-10-15 04:07:00
12:51 AM,62.1,55.0,78,29.71,10.0,WSW,15.0,-,0.00,,Overcast,240,2012-10-15 04:51:00
1:12 AM,60.8,55.4,82,29.73,10.0,West,17.3,-,N/A,,Overcast,260,2012-10-15 05:12:00
1:44 AM,60.8,51.8,72,29.74,10.0,West,20.7,29.9,N/A,,Overcast,270,2012-10-15 05:44:00
1:51 AM,60.1,52.0,75,29.74,10.0,West,18.4,-,N/A,,Overcast,280,2012-10-15 05:51:00
2:14 AM,59.0,51.8,77,29.76,10.0,WNW,13.8,27.6,N/A,,Overcast,290,2012-10-15 06:14:00
2:51 AM,57.0,48.0,72,29.77,10.0,West,15.0,24.2,N/A,,Overcast,280,2012-10-15 06:51:00
2:58 AM,57.2,48.2,72,29.77,10.0,West,19.6,24.2,N/A,,Overcast,280,2012-10-15 06:58:00
3:29 AM,55.4,48.2,77,29.77,10.0,WNW,15.0,20.7,N/A,,Overcast,290,2012-10-15 07:29:00
3:51 AM,55.0,46.9,74,29.76,10.0,West,18.4,25.3,N/A,,Overcast,280,2012-10-15 07:51:00
4:51 AM,55.0,46.0,72,29.77,10.0,West,11.5,-,N/A,,Overcast,280,2012-10-15 08:51:00
5:51 AM,55.0,46.9,74,29.79,10.0,WSW,13.8,-,N/A,,Overcast,250,2012-10-15 09:51:00
6:51 AM,55.0,46.0,72,29.79,10.0,West,16.1,-,N/A,,Overcast,260,2012-10-15 10:51:00
7:51 AM,54.0,45.0,72,29.79,10.0,West,10.4,-,N/A,,Overcast,260,2012-10-15 11:51:00
7:58 AM,53.6,44.6,72,29.80,10.0,West,10.4,-,N/A,,Overcast,270,2012-10-15 11:58:00
8:51 AM,54.0,46.0,75,29.81,10.0,West,9.2,-,N/A,,Overcast,260,2012-10-15 12:51:00
9:51 AM,53.1,48.0,83,29.81,7.0,WSW,10.4,-,N/A,,Overcast,240,2012-10-15 13:51:00
10:25 AM,51.8,50.0,94,29.83,4.0,SW,9.2,-,0.01,Rain,Light Rain,230,2012-10-15 14:25:00
10:51 AM,53.1,51.1,93,29.83,10.0,WSW,8.1,-,0.01,,Overcast,240,2012-10-15 14:51:00
11:51 AM,52.0,48.9,89,29.85,6.0,WNW,10.4,-,0.01,Rain,Light Rain,300,2012-10-15 15:51:00
12:28 PM,51.8,48.2,88,29.85,10.0,West,13.8,-,0.00,,Overcast,270,2012-10-15 16:28:00
12:51 PM,53.1,46.9,80,29.85,10.0,West,15.0,-,0.00,,Overcast,270,2012-10-15 16:51:00
1:44 PM,53.6,46.4,77,29.85,10.0,West,10.4,-,0.00,,Overcast,260,2012-10-15 17:44:00
1:51 PM,54.0,46.0,75,29.85,10.0,West,12.7,-,0.00,,Light Drizzle,270,2012-10-15 17:51:00
2:51 PM,53.1,46.0,77,29.86,10.0,West,17.3,-,0.00,,Overcast,280,2012-10-15 18:51:00
2:58 PM,53.6,44.6,72,29.86,10.0,West,16.1,-,N/A,,Overcast,280,2012-10-15 18:58:00
3:51 PM,54.0,45.0,72,29.87,10.0,West,12.7,-,N/A,,Overcast,280,2012-10-15 19:51:00
4:51 PM,55.0,43.0,64,29.88,10.0,West,13.8,-,N/A,,Overcast,280,2012-10-15 20:51:00
5:51 PM,55.0,43.0,64,29.89,10.0,WNW,10.4,-,N/A,,Overcast,290,2012-10-15 21:51:00
6:51 PM,54.0,42.1,64,29.91,10.0,WNW,10.4,18.4,N/A,,Mostly Cloudy,290,2012-10-15 22:51:00
7:51 PM,54.0,42.1,64,29.93,10.0,WNW,11.5,-,N/A,,Overcast,290,2012-10-15 23:51:00
8:51 PM,53.1,42.1,66,29.94,10.0,WNW,9.2,-,N/A,,Overcast,300,2012-10-16 00:51:00
9:51 PM,52.0,42.1,69,29.94,10.0,NW,4.6,-,N/A,,Overcast,310,2012-10-16 01:51:00
10:43 PM,51.8,42.8,71,29.95,10.0,WNW,6.9,-,N/A,,Overcast,290,2012-10-16 02:43:00
10:48 PM,51.8,42.8,71,29.95,10.0,NW,8.1,-,N/A,,Overcast,310,2012-10-16 02:48:00
10:51 PM,52.0,42.1,69,29.95,10.0,NW,6.9,-,N/A,,Overcast,310,2012-10-16 02:51:00
11:51 PM,51.1,39.9,66,29.95,10.0,NW,6.9,-,N/A,,Overcast,310,2012-10-16 03:51:00